FW9519 Weather Reports


time (UTC)temp
C
wind
direction
speed
KPH
gust
KPH
rain 1hr
cm
rain 24hr
cm
rain mn
cm
humidity
%
barometer
mb
20260508114531 7 159 1.6 6.4 0.00 0.00 0.00 84 1018.5
20260508111605 6 173 0.0 4.8 0.00 0.00 0.00 85 1018.3
20260508110030 6 184 0.0 3.2 0.00 0.00 0.00 84 1018.2
20260508104609 6 163 0.0 4.8 0.00 0.00 0.00 84 1018.3
20260508103145 6 178 0.0 4.8 0.00 0.00 0.00 82 1018.2
20260508100033 6 177 0.0 4.8 0.00 0.00 0.00 83 1018.2
20260508093032 7 197 0.0 3.2 0.00 0.00 0.00 80 1018.1
20260508091530 7 170 0.0 3.2 0.00 0.00 0.00 78 1018.0
20260508090109 7 181 0.0 6.4 0.00 0.00 0.00 77 1018.0
20260508084532 7 162 0.0 4.8 0.00 0.00 0.00 76 1018.0
20260508083031 8 186 1.6 4.8 0.00 0.00 0.00 74 1018.0
20260508081529 8 174 1.6 4.8 0.00 0.00 0.00 72 1018.0
20260508073033 8 162 3.2 8.0 0.00 0.00 0.00 69 1018.0
20260508063147 11 185 0.0 3.2 0.00 0.00 0.00 57 1018.1
20260508061603 12 169 0.0 4.8 0.00 0.00 0.00 53 1018.1
20260508060144 12 242 3.2 8.0 0.00 0.00 0.00 50 1018.1
20260508054531 13 254 3.2 8.0 0.00 0.00 0.00 48 1018.1
20260508053028 12 230 1.6 11.3 0.00 0.00 0.00 51 1018.2
20260508050029 11 230 0.0 6.4 0.00 0.00 0.00 58 1018.0
20260508044603 11 167 0.0 3.2 0.00 0.00 0.00 57 1018.0
20260508043102 11 187 0.0 4.8 0.00 0.00 0.00 56 1017.9
20260508041529 12 171 1.6 4.8 0.00 0.00 0.00 51 1017.8
20260508040030 13 185 0.0 3.2 0.00 0.00 0.00 50 1017.7
20260508034533 15 176 0.0 4.8 0.00 0.00 0.00 42 1017.6
20260508033030 16 217 0.0 3.2 0.00 0.00 0.00 37 1017.5
20260508024603 19 283 0.0 4.8 0.00 0.00 0.00 30 1017.0
20260508023030 20 335 0.0 9.7 0.00 0.00 0.00 28 1016.9
20260508021530 21 165 0.0 16.1 0.00 0.00 0.00 27 1016.8
20260508013031 22 62 0.0 19.3 0.00 0.00 0.00 26 1016.8
20260508004529 22 2 1.6 17.7 0.00 0.00 0.00 23 1016.8
20260508003028 22 292 3.2 22.5 0.00 0.00 0.00 23 1016.8
20260508001533 22 290 1.6 11.3 0.00 0.00 0.00 24 1016.7
20260508000032 22 347 3.2 14.5 0.00 0.00 0.00 24 1016.7
20260507233031 22 350 1.6 17.7 0.00 0.00 0.00 28 1016.8
20260507231532 21 322 3.2 16.1 0.00 0.00 0.00 29 1017.0
20260507230031 21 302 3.2 27.4 0.00 0.00 0.00 30 1017.0
20260507224526 22 344 1.6 12.9 0.00 0.00 0.00 30 1017.1
20260507223031 22 336 1.6 9.7 0.00 0.00 0.00 33 1017.2
20260507221532 22 8 1.6 11.3 0.00 0.00 0.00 34 1017.4
20260507220027 22 48 0.0 9.7 0.00 0.00 0.00 36 1017.6
20260507213029 21 287 3.2 14.5 0.00 0.00 0.00 41 1017.8
20260507211540 21 273 3.2 14.5 0.00 0.00 0.00 44 1017.9
20260507204604 21 261 1.6 14.5 0.00 0.00 0.00 45 1018.0
20260507201531 21 271 1.6 17.7 0.00 0.00 0.00 45 1018.4
20260507200027 21 344 1.6 11.3 0.00 0.00 0.00 46 1018.6
20260507194530 21 309 0.0 8.0 0.00 0.00 0.00 47 1018.7
20260507191528 21 329 1.6 11.3 0.00 0.00 0.00 48 1019.1
20260507184529 21 350 0.0 8.0 0.00 0.00 0.00 49 1019.5
20260507183044 20 8 0.0 6.4 0.00 0.00 0.00 51 1019.6
20260507181531 20 353 0.0 11.3 0.00 0.00 0.00 52 1019.7
20260507180029 19 84 0.0 8.0 0.00 0.00 0.00 54 1019.7
20260507174530 17 278 0.0 6.4 0.00 0.00 0.00 55 1020.0
20260507171533 17 257 1.6 19.3 0.00 0.00 0.00 56 1020.3
20260507170029 16 262 0.0 11.3 0.00 0.00 0.00 59 1020.4
20260507164531 17 23 1.6 11.3 0.00 0.00 0.00 60 1020.4
20260507163110 16 25 0.0 8.0 0.00 0.00 0.00 61 1020.6
20260507161532 15 360 1.6 9.7 0.00 0.00 0.00 62 1020.6
20260507160031 15 354 1.6 9.7 0.00 0.00 0.00 62 1020.8
20260507154606 15 39 0.0 8.0 0.00 0.00 0.00 63 1020.9
20260507153031 14 333 1.6 9.7 0.00 0.00 0.00 66 1020.9
20260507151530 14 272 1.6 9.7 0.00 0.00 0.00 67 1021.1
20260507150035 13 300 1.6 9.7 0.00 0.00 0.00 70 1021.2
20260507143030 12 306 1.6 8.0 0.00 0.00 0.00 73 1021.2
20260507141530 11 20 4.8 17.7 0.00 0.00 0.00 75 1021.0
20260507140031 11 75 1.6 11.3 0.00 0.00 0.00 80 1020.7
20260507133028 9 159 0.0 4.8 0.00 0.00 0.00 84 1020.4
20260507131554 10 125 0.0 6.4 0.00 0.00 0.00 82 1020.4
20260507130030 11 193 1.6 9.7 0.00 0.00 0.00 78 1020.3
20260507124530 11 209 3.2 9.7 0.00 0.00 0.00 77 1020.3
20260507121530 12 232 1.6 9.7 0.00 0.00 0.00 76 1020.3